Terminal Aerodrome Forecast
Issued by NWS

Home | Current Version | Previous Version | Text Only | Print | Product List | Glossary On
Versions: 1 2 3 4 5 6 7 8 9 10 11 12 13 14 15 16 17 18 19 20 21 22 23 24 25 26 27 28 29
000
FTUS41 KBUF 281100
TAFJHW
TAF
KJHW 281127Z 2812/2912 27008KT 3SM +RA VCTS OVC007CB
     FM281400 31011KT 3SM +RA VCTS OVC007CB
     FM281600 34012KT 3SM +RA OVC007
     FM281700 34013KT 4SM RA OVC012
     FM281900 34013KT 6SM -SHRA OVC015
     FM282100 33013KT P6SM OVC020
     FM290100 32011KT P6SM OVC035
     FM290600 31008KT P6SM BKN025
      AMD LTD TO CLD VIS AND WIND=

USA.gov is the U.S. government's official web portal to all federal, state and local government web resources and services.